Location: ???????
(41.3339°N, 22.6430°E)
Time: 13:56:28
(UTC+00:00)

Daily predictions for brighter satellites

Satellite Brightness Start Highest point End
(mag) Time Altitude Azimuth Time Altitude Azimuth Time Altitude Azimuth
NOSS 3-1 (A) 4.3 17:45:44 10° NNW 17:53:27 82° NE 18:02:20 10° SE
Meteor 2-8 Rocket 4.5 17:57:28 10° S 18:03:34 82° E 18:09:40 10° N
BREEZE-M R/B 3.0 18:01:37 10° SSW 18:04:26 26° SE 18:06:37 10° E
Cosmos 2221 2.7 18:03:08 10° SSE 18:07:16 50° E 18:11:27 10° NNE
Cosmos 1766 Rocket 3.8 18:03:45 10° N 18:08:09 77° W 18:12:32 10° S
SL-16 R/B 4.3 18:03:57 10° NW 18:08:38 27° WSW 18:13:17 10° SSW
Resurs 01 Rocket 3.1 18:05:57 10° ESE 18:09:17 21° ENE 18:12:38 10° NNE
Cosmos 482 Debris 3.6 18:07:14 10° WNW 18:09:25 39° SW 18:11:11 10° SSE
SAR-Lupe-4 4.4 18:08:53 10° N 18:12:24 55° WNW 18:15:54 10° SSW
DELTA 2 R/B (1) 3.6 18:07:15 10° WSW 18:12:47 72° S 18:18:19 10° E
CZ-4 R/B 4.3 18:15:27 10° SW 18:18:08 17° W 18:20:48 10° NW
SL-4 R/B 3.5 18:14:40 10° NW 18:18:38 33° NNE 18:22:51 10° E
Cosmos 1943 3.2 18:15:52 10° NNW 18:21:33 90° ENE 18:27:12 10° SSE
Cosmos 2263 Rocket 3.1 18:16:14 10° SW 18:21:39 52° WNW 18:27:07 10° NNE
Cosmos 1844 Rocket 3.2 18:22:35 10° S 18:27:35 36° ESE 18:32:38 10° NE
Cosmos 1606 3.1 18:25:41 10° SSE 18:29:12 41° E 18:32:46 10° NNE
Cosmos 841 Rocket 3.7 18:25:23 10° NNW 18:30:32 70° WSW 18:35:38 10° S
X-37B 1.4 18:27:52 10° W 18:30:59 53° NNW 18:34:08 10° ENE
Sich 1 4.4 18:31:10 10° NNE 18:34:33 22° ENE 18:36:41 16° ESE
ASTRO E2 4.3 18:31:51 10° SW 18:34:45 19° S 18:36:31 15° SSE
Cosmos 1844 4.2 18:35:50 10° S 18:41:05 38° ESE 18:46:18 10° NE
BREEZE-M DEB (TANK) 4.3 18:32:29 10° WNW 18:43:47 57° NNE 18:46:40 15° E
Meteor 2-15 Rocket 4.5 18:37:48 10° S 18:43:52 84° W 18:49:59 10° N
OBJECT-B 2.4 18:46:59 10° SSW 18:49:57 33° W 18:52:56 10° NNW
Cosmos 1933 4.2 18:48:40 21° SE 18:50:23 30° E 18:53:54 10° NNE
Cosmos 1862 4.0 18:48:04 10° NNW 18:51:59 54° W 18:55:54 10° S
Cosmos 1570 Rocket 4.5 18:50:01 10° NNW 18:55:11 60° WSW 19:00:10 11° S
ATLAS 5 CENTAUR R/B 3.7 18:52:31 10° NNW 18:57:11 27° NE 19:01:23 14° E
Cosmos 1151 Rocket 4.3 18:57:29 21° E 18:58:09 22° E 19:01:29 10° NE
ARIANE 5 R/B 4.0 18:56:58 19° E 18:58:28 23° ENE 19:01:51 10° NNE
[s.n.48335] 2.4 18:58:13 10° SW 19:00:52 87° NNW 19:03:33 10° NE
SPOT 1/Viking Rocket 4.2 18:58:06 22° SE 19:00:55 40° ENE 19:05:45 10° N
[s.n.48334] 2.4 18:58:17 10° SW 19:00:56 86° NW 19:03:37 10° NE
[s.n.48333] 2.3 18:58:26 10° SW 19:01:02 86° NW 19:03:21 12° NE
[s.n.48332] 2.4 18:58:22 10° SW 19:01:02 86° NW 19:03:42 10° NE
[s.n.48331] 2.4 18:58:31 10° SW 19:01:10 86° NW 19:03:51 10° NE
[s.n.48330] 2.3 18:58:42 10° SW 19:01:16 85° NW 19:03:36 12° NE
[s.n.48329] 2.4 18:58:40 10° SW 19:01:20 86° NW 19:04:01 10° NE
[s.n.48328] 2.3 18:58:50 10° SW 19:01:25 85° NW 19:03:45 12° NE
[s.n.48327] 2.3 18:58:53 10° SW 19:01:29 85° NW 19:03:49 12° NE
[s.n.48326] 2.4 18:58:54 10° SW 19:01:32 85° NW 19:04:11 10° NE
Ariane Rocket 3.4 18:57:02 10° S 19:02:01 61° WSW 19:07:02 10° NNW
Cosmos 1745 Rocket 4.0 18:56:50 10° N 19:03:00 62° E 19:07:17 20° SSE
SL-08 ROCKET BODY 4.3 18:57:33 10° N 19:03:30 89° WSW 19:08:44 13° S
[s.n.48324] 2.5 19:01:41 10° SW 19:04:21 79° NW 19:07:02 10° NE
[s.n.48325] 2.5 19:02:20 10° SW 19:05:01 77° NW 19:07:40 10° NE
[s.n.48323] 2.5 19:02:34 10° SW 19:05:10 76° NW 19:07:25 13° NE
[s.n.48321] 2.5 19:02:46 10° SW 19:05:23 76° NW 19:07:37 13° NE
[s.n.48320] 2.5 19:02:49 10° SW 19:05:26 76° NW 19:07:41 13° NE
[s.n.48322] 2.5 19:02:46 10° SW 19:05:26 76° NW 19:08:04 10° NE
[s.n.48319] 2.5 19:02:55 10° SW 19:05:31 76° NW 19:07:46 13° NE
[s.n.48318] 2.5 19:02:56 10° SW 19:05:32 76° NW 19:07:47 13° NE
[s.n.48317] 2.5 19:03:05 10° SW 19:05:41 75° NW 19:07:54 13° NE
[s.n.48316] 2.5 19:03:10 10° SW 19:05:45 75° NW 19:07:59 13° NE
[s.n.48315] 2.5 19:03:10 10° SW 19:05:50 75° NW 19:08:28 10° NE
[s.n.48314] 2.6 19:03:15 10° SW 19:05:55 75° NW 19:08:35 10° NE
[s.n.48313] 2.6 19:03:21 10° SW 19:06:00 75° NW 19:08:38 10° NE
[s.n.48312] 2.6 19:03:25 10° SW 19:06:05 75° NW 19:08:43 10° NE
[s.n.48311] 2.6 19:03:31 10° SW 19:06:10 75° NW 19:08:48 10° NE
[s.n.48310] 2.5 19:03:35 10° SW 19:06:12 74° NW 19:08:42 11° NE
[s.n.48309] 2.5 19:03:40 10° WSW 19:06:17 74° NW 19:08:46 11° NE
[s.n.48308] 2.6 19:03:44 10° WSW 19:06:24 74° NW 19:09:03 10° NE
[s.n.48307] 2.5 19:03:54 10° WSW 19:06:31 73° NW 19:08:45 13° NE
[s.n.48306] 2.6 19:03:53 10° WSW 19:06:33 74° NW 19:09:10 10° NE
[s.n.48305] 2.6 19:04:00 10° WSW 19:06:39 74° NW 19:09:17 10° NE
[s.n.48304] 2.5 19:04:08 10° WSW 19:06:44 73° NW 19:08:57 13° NE
Cosmos 921 Rocket 4.4 19:02:56 10° NW 19:06:48 34° W 19:10:35 10° SSW
[s.n.48303] 2.6 19:04:09 10° WSW 19:06:48 73° NW 19:09:25 11° NE
[s.n.48302] 2.6 19:04:13 10° WSW 19:06:54 73° NW 19:09:30 11° NE
[s.n.48301] 2.5 19:04:24 10° WSW 19:07:00 72° NW 19:09:14 13° NE
[s.n.48300] 2.5 19:04:27 10° WSW 19:07:02 72° NW 19:09:15 13° NE
[s.n.48299] 2.6 19:04:34 10° WSW 19:07:10 72° NW 19:09:24 13° NE
[s.n.48298] 2.6 19:04:34 10° WSW 19:07:14 72° NW 19:09:50 11° NE
[s.n.48297] 2.6 19:04:39 10° WSW 19:07:19 72° NW 19:09:57 10° NE
[s.n.48296] 2.6 19:04:43 10° WSW 19:07:24 72° NW 19:10:02 10° NE
[s.n.48295] 2.6 19:04:54 10° WSW 19:07:30 71° NW 19:09:41 14° NE
[s.n.48294] 2.6 19:05:00 10° WSW 19:07:36 71° NW 19:09:47 13° NE
[s.n.48293] 2.6 19:05:03 10° WSW 19:07:39 71° NW 19:09:51 13° NE
[s.n.48292] 2.6 19:05:03 10° WSW 19:07:42 71° NW 19:10:18 11° NE
[s.n.48291] 2.6 19:05:14 10° WSW 19:07:50 71° NW 19:10:01 13° NE
[s.n.48290] 2.6 19:05:16 10° WSW 19:07:52 71° NW 19:10:04 13° NE
[s.n.48289] 2.6 19:05:24 10° WSW 19:08:00 70° NW 19:10:12 13° NE
[s.n.48288] 2.6 19:05:27 10° WSW 19:08:04 70° NW 19:10:15 13° NE
[s.n.48286] 2.6 19:05:31 10° WSW 19:08:07 70° NW 19:10:19 13° NE
[s.n.48287] 2.6 19:05:33 10° WSW 19:08:08 70° NW 19:10:19 14° NE
[s.n.48285] 2.6 19:05:43 10° WSW 19:08:19 70° NW 19:10:30 14° NE
[s.n.48284] 2.6 19:05:48 10° WSW 19:08:23 69° NW 19:10:34 14° NE
[s.n.48283] 2.6 19:05:54 10° WSW 19:08:30 69° NW 19:10:40 14° NE
[s.n.48282] 2.6 19:05:59 10° WSW 19:08:34 69° NW 19:10:45 14° NE
[s.n.48281] 2.7 19:05:59 10° WSW 19:08:39 70° NW 19:11:15 11° NE
[s.n.48280] 2.6 19:06:09 10° WSW 19:08:45 69° NW 19:10:56 14° NE
[s.n.48279] 2.6 19:06:13 10° WSW 19:08:49 69° NW 19:10:59 14° NE
[s.n.48278] 2.7 19:06:13 10° WSW 19:08:53 69° NW 19:11:29 11° NE
[s.n.48277] 2.6 19:06:23 10° WSW 19:08:59 68° NW 19:11:09 14° NE
[s.n.48276] 2.7 19:06:25 10° WSW 19:09:05 69° NW 19:11:42 11° NE
Cosmos 1805 Rocket 3.4 19:06:25 10° N 19:10:46 72° E 19:12:58 28° SSE
Resurs 1-3 4.5 19:09:05 11° S 19:13:05 47° W 19:17:20 10° NNW
Cosmos 1437 Rocket 2.8 19:09:55 11° SSW 19:13:35 75° W 19:17:29 10° N
SPOT 3 Rocket 3.5 19:10:13 22° SSE 19:13:40 86° ENE 19:18:51 10° NNW
Cosmos 1354 Rocket 4.4 19:11:28 25° SSE 19:13:52 40° ESE 19:18:44 10° NE
Cosmos 2315 Rocket 4.5 19:10:32 24° SE 19:13:54 42° E 19:19:51 10° NNE
Milstar 3 4.3 19:03:01 10° SW 19:14:07 27° SSE 19:17:21 23° SE
FALCON 9 DEB 2.9 19:11:15 10° NW 19:14:16 66° NE 19:14:46 53° E
Intercosmos 24 3.7 19:12:06 18° S 19:15:07 78° E 19:18:42 10° N
SPOT 5 4.1 19:16:16 23° E 19:17:51 27° ENE 19:22:09 10° N
S3M 4.0 19:12:35 10° S 19:18:59 87° E 19:25:23 10° N
Cosmos 1633 Rocket 3.9 19:16:46 10° N 19:20:46 33° ENE 19:21:31 31° E
FALCON 9 DEB 2.6 19:18:14 10° NW 19:21:16 85° NE 19:21:29 74° ESE
Cosmos 1782 3.4 19:21:23 36° E 19:21:34 36° E 19:25:15 10° NNE
Meteor 1-20 Rocket 4.2 19:16:47 10° N 19:22:26 67° E 19:25:07 31° SSE
BREEZE M DEB (TANK) 4.2 19:21:19 10° WNW 19:25:39 23° N 19:27:43 11° NE
FALCON 9 DEB 2.8 19:23:46 10° NW 19:26:49 71° NE 19:26:54 71° NE
Cosmos 1328 Rocket 4.1 19:29:36 38° ESE 19:29:55 38° E 19:34:02 10° NNE
IRIS 3.9 19:27:36 10° W 19:30:08 88° WSW 19:30:08 88° WSW
USA 290 2.9 19:30:50 10° N 19:33:41 43° NE 19:33:41 43° NE
CARTOSAT-1 3.9 19:33:55 43° ESE 19:34:39 48° ENE 19:38:49 10° N
Cosmos 1486 Rocket 4.5 19:30:08 10° SSW 19:35:23 62° WNW 19:40:42 10° NNE
BREEZE-M DEB (TANK) 4.1 19:34:28 10° NNW 19:35:37 13° N 19:36:29 11° NNE
Terra 3.0 19:36:02 26° E 19:36:46 28° ENE 19:40:47 10° N
Cosmos 968 Rocket 4.5 19:32:18 10° SW 19:37:22 47° WNW 19:42:26 10° N
NOSS 3-3 (A) 4.0 19:38:52 33° S 19:41:02 49° ESE 19:47:04 10° NE
NOSS 3-3 (C) 4.0 19:39:05 34° SSE 19:41:08 48° ESE 19:47:09 10° NE
CZ-4C R/B 4.0 19:35:16 10° NNW 19:41:40 34° NE 19:46:26 19° E
USA 245 4.3 19:45:31 25° NNW 19:45:31 25° NNW 19:46:38 10° NNW
Cosmos 1666 Rocket 3.4 19:40:07 10° N 19:44:33 75° E 19:45:18 59° SE
Resurs 01 Rocket 2.9 19:42:58 20° SSW 19:45:32 37° W 19:49:40 10° NNW
Meteor 1-25 Rocket 4.3 19:41:06 10° NNW 19:46:57 80° W 19:49:39 34° S
Cosmos 1500 4.2 19:43:34 10° N 19:46:26 32° NE 19:46:26 32° NE
Meteor 2-17 Rocket 4.4 19:42:50 10° N 19:49:02 86° E 19:51:37 38° S
Cosmos 2278 Rocket 3.2 19:54:32 30° E 19:54:32 30° E 19:58:31 10° NE
Cosmos 1242 Rocket 3.2 19:52:51 42° WSW 19:53:38 51° WNW 19:57:08 10° N
Cosmos 1602 3.6 19:51:53 10° N 19:55:45 84° W 19:55:48 83° WSW
JB-3 4.1 19:52:02 10° NNE 19:55:59 88° E 19:56:01 87° SE
SL-4 R/B 2.2 19:54:04 10° WNW 19:58:34 68° SW 19:58:55 64° S
DELTA 2 R/B (1) 3.5 19:53:35 10° W 19:59:06 67° S 20:00:02 56° SE
X-37B 2.2 20:04:53 10° WNW 20:07:15 36° NNW 20:07:15 36° NNW
SJ 16-02 3.3 20:10:20 19° ENE 20:10:20 19° ENE 20:11:57 10° NE
Iridium 4 Rocket 3.8 20:09:16 53° ESE 20:09:51 56° E 20:15:33 10° N
Spot 2 Rocket 3.7 20:08:53 47° SSW 20:10:08 63° WSW 20:15:09 10° NNW
Cosmos 1844 Rocket 4.3 20:06:30 10° WSW 20:11:28 33° WNW 20:16:29 10° N
Cosmos 773 Rocket 4.0 20:07:33 10° NNW 20:12:50 65° ENE 20:13:21 61° E
Meteor 1-5 Rocket 4.0 20:16:45 10° N 20:22:11 68° E 20:22:27 66° E
Meteor 1-14 Rocket 4.2 20:17:16 10° N 20:23:11 83° W 20:24:16 61° S
Cosmos 1812 3.6 20:25:47 45° N 20:25:47 45° N 20:28:32 10° N
ERS-1 Rocket 3.2 20:31:14 57° SW 20:31:41 60° W 20:36:39 10° NNW
Cosmos 1777 Rocket 3.9 20:33:54 76° SW 20:34:14 82° WNW 20:39:28 10° NNE
ARIANE 5 R/B 3.8 20:34:30 32° WSW 20:34:45 32° W 20:38:40 10° NNW
Cosmos 2154 Rocket 4.3 20:32:13 10° N 20:38:22 50° ENE 20:38:47 49° E
ATLAS 5 CENTAUR R/B 2.4 20:36:27 10° NW 20:42:15 68° WSW 20:42:54 64° SSW
Cosmos 1515 Rocket 4.2 20:44:37 54° WNW 20:44:37 54° WNW 20:48:36 10° N
H-2A R/B 4.2 20:40:33 10° N 20:44:09 51° NW 20:44:09 51° NW
Cosmos 1833 Rocket 2.7 20:40:51 10° NNW 20:46:32 70° ENE 20:46:34 70° ENE
Cosmos 2184 Rocket 3.8 20:40:34 10° N 20:46:50 85° E 20:47:23 75° SSE
Meteor 1-27 Rocket 4.0 20:49:19 55° ENE 20:49:19 55° ENE 20:54:33 10° NNE
Cosmos 1666 4.4 20:49:46 10° NNW 20:51:54 32° NNW 20:51:54 32° NNW
SPOT 5 4.0 20:55:30 35° WSW 20:55:44 35° W 21:00:26 10° NNW
Cosmos 2074 Rocket 3.9 20:50:51 10° N 20:57:09 78° W 20:57:46 71° SSW
Nadezhda 1 Rocket 3.8 21:03:21 82° SSE 21:03:37 86° E 21:09:56 10° N
COSMOS 2406 3.2 21:00:38 10° NNW 21:05:59 77° WNW 21:05:59 77° WNW
Meteor 1-11 Rocket 3.8 21:06:50 10° N 21:12:42 83° WNW 21:12:42 83° WNW
Terra 3.2 21:14:55 30° W 21:14:55 30° W 21:18:38 10° NNW
Cosmos 2082 Rocket 2.5 21:09:48 10° NNW 21:14:57 59° NE 21:14:57 59° NE
Cosmos 1610 Rocket 4.3 21:12:30 10° N 21:18:35 83° W 21:18:35 83° W
NOSS 3-4 (A) 4.0 21:18:28 10° NNW 21:25:31 67° NE 21:26:45 58° E
NOSS 3-4 (C) 4.0 21:18:34 10° NNW 21:25:37 67° NE 21:26:51 58° E
Cosmos 2341 Rocket 4.2 21:19:45 10° N 21:25:55 60° ENE 21:25:55 60° ENE
CZ-4C R/B 3.0 21:23:22 10° NW 21:30:51 72° WSW 21:31:36 67° SSW
Cosmos 2278 Rocket 3.3 21:36:19 34° W 21:37:33 38° WNW 21:42:49 10° N
ATLAS 2AS CENTAUR R/B 3.3 21:32:01 10° NNW 21:39:09 50° NE 21:40:35 44° E
USA 215 3.9 21:37:52 36° E 21:40:06 51° NNE 21:46:23 10° NW
SJ 16-02 3.2 21:47:16 26° NW 21:47:16 26° NW 21:50:29 10° N
SeaSat 1 4.1 21:42:55 10° NE 21:45:09 25° NE 21:45:09 25° NE
Cosmos 2218 Rocket 4.3 21:42:24 10° N 21:48:10 57° ENE 21:48:10 57° ENE
Cosmos 2369 Rocket 4.0 21:52:20 21° ENE 21:52:20 21° ENE 21:54:48 10° NE
Cosmos 1680 Rocket 4.2 21:48:28 10° NNW 21:52:31 53° NNW 21:52:31 53° NNW
Cosmos 1937 Rocket 4.5 22:00:13 41° NNE 22:00:13 41° NNE 22:03:34 10° NNE
Cosmos 1943 Rocket 2.9 22:08:48 48° NE 22:08:48 48° NE 22:12:51 10° NNE
Cosmos 44 4.4 22:04:28 10° NNW 22:09:02 45° NNE 22:09:02 45° NNE
Cosmos 1238 Rocket 4.1 22:07:00 10° N 22:12:33 63° NW 22:12:33 63° NW
SL-8 Rocket 4.3 22:16:14 10° NNW 22:21:52 62° WNW 22:21:52 62° WNW
Cosmos 2297 4.3 22:31:05 53° NW 22:31:05 53° NW 22:36:04 10° NNE
CZ-2D R/B 4.1 22:52:15 10° NE 22:55:33 18° E 22:55:33 18° E
Cosmos 2082 Rocket 4.3 22:55:11 10° WNW 22:56:47 15° WNW 22:56:47 15° WNW
BREEZE-M DEB (TANK) 4.2 22:55:41 10° WNW 23:04:28 58° NW 23:04:28 58° NW
Cosmos 1125 Rocket 4.4 23:08:18 44° NE 23:08:18 44° NE 23:12:08 10° NNE
SL-16 R/B 4.1 23:07:08 20° ESE 23:10:00 29° ENE 23:15:14 10° N
Meteor 1-12 Rocket 4.4 23:08:12 10° N 23:13:27 71° N 23:13:27 71° N
RESURS DK-1 4.3 23:11:54 10° N 23:14:23 28° NNE 23:14:23 28° NNE
Meteor 1-13 Rocket 4.5 23:21:11 64° NNW 23:21:11 64° NNW 23:25:57 10° N
Cosmos 1821 Rocket 4.2 23:15:00 10° NNW 23:20:50 61° WNW 23:20:50 61° WNW
USA 215 4.0 23:25:10 38° W 23:25:10 38° W 23:29:26 10° NW
SeaSat 1 4.0 23:20:47 10° N 23:24:55 27° NW 23:24:55 27° NW
ATLAS CENTAUR R/B 3.7 23:28:25 18° NE 23:28:25 18° NE 23:29:30 10° NE
Resurs 1-4 Rocket 3.2 23:22:23 10° NNE 23:26:48 34° E 23:26:48 34° E
ADEOS II 4.2 23:24:33 10° NE 23:27:33 15° E 23:28:22 15° E
ATLAS 2AS CENTAUR R/B 3.8 23:23:27 10° NW 23:27:59 31° W 23:27:59 31° W
Cosmos 1934 Rocket 3.8 23:25:06 10° N 23:31:09 85° NE 23:31:09 85° NE
Cosmos 2369 Rocket 2.9 23:34:06 43° NW 23:34:06 43° NW 23:39:18 10° NNE
Meteor 1-23 Rocket 4.2 23:45:03 81° NNW 23:45:03 81° NNW 23:50:39 10° N
Cosmos 1535 Rocket 4.3 23:38:44 10° N 23:44:59 82° W 23:45:02 82° WSW
Cosmos 1400 Rocket 4.5 23:45:49 10° N 23:49:02 32° ENE 23:49:02 32° ENE
Cosmos 1943 Rocket 4.1 23:50:17 18° WNW 23:51:33 19° NW 23:55:28 10° N
Cosmos 2221 Rocket 4.5 23:53:21 47° NNW 23:53:21 47° NNW 23:56:43 10° N
